Погода в Пещере

Россия / Кировская область     59°11′26″N   52°19′43″E
темп.,
°C
ветер,
м/с
пор.,
м/с
влажн.,
%
обл.,
%
осадки,
мм/ч
давл.,
гПа
погр.,
м
23 апреля, пт
пт2300:00+5ю4119088 0.0 1023517
03:00+4ююз3893100 0.3 1024383
06:00+4ю369499 0.0 1025300
09:00+6ююз358774 0.0 1026438
12:00+10ююз3461100 0.1 10251310
15:00+9ю2572100 0.2 1026337
18:00+8юв2675100 0.0 1025172
21:00+7ююв3884100 0.1 1025249
24 апреля, сб
сб2400:00+6юв3788100 0.1 1024242
03:00+6юв2790100 0.1 1024264
06:00+6вюв3986100 0.0 1023407
09:00+8вюв4766100 0.0 1021844
12:00+10вюв5756100 0.0 10191469
15:00+9в4663100 0.0 10171269
18:00+6в4887100 0.0 10151008
21:00+5вюв4892100 0.6 1014970
25 апреля, вс
вс2500:00+5в4894100 0.6 1012967
03:00+4вюв5996100 1.2 1010876
06:00+4вюв5997100 1.0 1008975
09:00+4вюв51094100 1.4 1006871
12:00+3в51196100 0.4 1004606
15:00+3вюв51296100 1.9 1003706
18:00+3ю3997100 1.9 1002621
21:00+3ю598665 2.1 1002788
26 апреля, пн
пн2600:00+1ю4893100 0.3 10021028
03:00+1ю4997100 1.0 1001533
06:00+1ююз3897100 0.9 1002363
09:00+1юз3998100 1.9 1003480
12:00+2юз51196100 0.7 1006627
15:00+2зюз51497100 2.0 1008797
18:00+3зюз51194100 0.9 10091017
21:00+2юз3118898 0.9 1010469
27 апреля, вт
вт2700:000юз310934 0.0 1010284
03:00−2ююз27965 0.0 1010134
06:00+2юз248444 0.0 1010187
09:00+6ююз2464100 0.0 1009964
12:00+8ю3450100 0.0 10081707
15:00+8вюв3558100 0.0 10061246
18:00+5в4990100 1.0 1004504
21:00+3ю3892100 2.6 1003651